Location: East Irvine
(33.6759°N, 117.7598°W)
Time: 01:51:20
(UTC+00:00)

OAO 2 Rocket - Pass Details

Date: 15 November 2025
Orbit: 669 x 734 km, 35.0° (Epoch: 07 December)

Event Time Altitude Azimuth Distance (km) Brightness Sun altitude
Rises 03:06:30 0° 277° (W) 3,072 7.8 -28.7°
Reaches altitude 10° 03:08:53 10° 279° (W) 2,165 6.7 -29.2°
Enters shadow 03:12:42 51° 289° (WNW) 890 4.0 -30.0°
